Carlsbad, NM

7:42 AM MST on January 22, 2018 (GMT -0700)
Cavern City

Weather History for KCNM - May, 2014

Change the Weather History Date:

Sunday, May 25, 2014

  Actual Average Record
Temperature  
Mean Temperature 72 °F -  
Max Temperature 84 °F 90 °F 102 °F (2006)
Min Temperature 60 °F 60 °F 49 °F (1954)
Cooling Degree Days 7    
Growing Degree Days 22 (Base 50)    
Moisture  
Dew Point 55 °F    
Average Humidity 62    
Maximum Humidity 90    
Minimum Humidity 28    
Precipitation  
Precipitation 0.00 in - - ()
Sea Level Pressure  
Sea Level Pressure 29.84 in    
Wind  
Wind Speed 6 mph (South)    
Max Wind Speed 21 mph    
Max Gust Speed 30 mph    
Visibility 10 miles    
Events      
Averages and records for this station are not official NWS values.
T = Trace of Precipitation, MM = Missing Value Source: NWS Daily Summary

Daily Weather History Graph

Daily Weather History Graph

Search for Another Location

Airport or City:

Trip Planner

Search our weather history database for the weather conditions in past years. The results will help you decide how hot, cold, wet, or windy it might be!

Date:

Astronomy

May. 25, 2014 Rise Set
Actual Time 5:53 AM MDT 7:54 PM MDT
Civil Twilight 5:25 AM MDT 8:22 PM MDT
Nautical Twilight 4:52 AM MDT 8:56 PM MDT
Astronomical Twilight 4:16 AM MDT 9:32 PM MDT
Moon 3:48 AM MDT (5/25) 5:07 PM MDT (5/25)
Length of Visible Light 14h 56m
Length of Day
14h 01m
Waning Crescent, 10% of the Moon is Illuminated
May 25
Waning Crescent
May 28
New
Jun 5
First Quarter
Jun 12
Full
Jun 19
Last Quarter

Hourly Weather History & Observations

Time (MDT) Temp. Dew Point Humidity Pressure Visibility Wind Dir Wind Speed Gust Speed Precip Events Conditions
12:53 AM 63.0 °F 57.0 °F 81% 29.81 in 10.0 mi Calm Calm - N/A   Overcast
1:53 AM 61.0 °F 57.0 °F 87% 29.81 in 10.0 mi West 3.5 mph - N/A   Clear
2:53 AM 61.0 °F 57.0 °F 87% 29.80 in 10.0 mi West 4.6 mph - N/A   Clear
3:53 AM 60.1 °F 57.0 °F 90% 29.81 in 10.0 mi NNW 5.8 mph - N/A   Mostly Cloudy
4:53 AM 62.1 °F 57.0 °F 84% 29.81 in 10.0 mi North 6.9 mph - N/A   Overcast
5:53 AM 62.1 °F 57.0 °F 84% 29.83 in 10.0 mi NW 4.6 mph - N/A   Overcast
6:35 AM 61.0 °F 57.0 °F 87% 29.98 in 10.0 mi WNW 4.6 mph - N/A   Scattered Clouds
6:53 AM 62.1 °F 57.0 °F 84% 29.84 in 10.0 mi NW 4.6 mph - N/A   Partly Cloudy
7:13 AM 63.0 °F 57.0 °F 81% 29.99 in 10.0 mi NW 9.2 mph - N/A   Mostly Cloudy
7:53 AM 64.0 °F 55.9 °F 75% 29.86 in 10.0 mi NW 9.2 mph - N/A   Scattered Clouds
8:53 AM 66.2 °F 55.4 °F 68% 30.01 in 10.0 mi Variable 3.5 mph - N/A   Overcast
9:53 AM 66.9 °F 57.0 °F 70% 29.88 in 10.0 mi NNE 3.5 mph - N/A   Overcast
10:40 AM 70.0 °F 59.0 °F 68% 30.00 in 10.0 mi Variable 3.5 mph - N/A   Scattered Clouds
10:53 AM 71.1 °F 59.0 °F 66% 29.87 in 10.0 mi Variable 5.8 mph - N/A   Scattered Clouds
11:53 AM 75.0 °F 57.9 °F 55% 29.85 in 10.0 mi Variable 3.5 mph - N/A   Partly Cloudy
12:53 PM 78.1 °F 53.1 °F 42% 29.82 in 10.0 mi SE 5.8 mph - N/A   Clear
1:53 PM 82.9 °F 46.9 °F 28% 29.79 in 10.0 mi ESE 13.8 mph 18.4 mph N/A   Partly Cloudy
2:53 PM 82.9 °F 51.1 °F 33% 29.77 in 10.0 mi SE 15.0 mph - N/A   Partly Cloudy
3:53 PM 82.0 °F 46.9 °F 29% 29.75 in 10.0 mi SE 6.9 mph - N/A   Partly Cloudy
4:53 PM 82.9 °F 50.0 °F 32% 29.72 in 10.0 mi East 12.7 mph - N/A   Partly Cloudy
5:50 PM 82.4 °F 48.2 °F 30% 29.86 in 10.0 mi SSE 19.6 mph 27.6 mph N/A   Scattered Clouds
5:53 PM 84.0 °F 48.9 °F 29% 29.71 in 10.0 mi SSE 16.1 mph 27.6 mph N/A   Scattered Clouds
6:53 PM 79.0 °F 52.0 °F 39% 29.73 in 10.0 mi SSE 20.7 mph 29.9 mph N/A   Clear
7:53 PM 75.0 °F 53.1 °F 46% 29.78 in 10.0 mi SSE 18.4 mph 25.3 mph N/A   Clear
8:53 PM 73.0 °F 55.0 °F 53% 29.80 in 10.0 mi SSE 12.7 mph - N/A   Clear
9:53 PM 71.1 °F 57.9 °F 63% 29.84 in 10.0 mi SSE 10.4 mph - N/A   Clear
10:53 PM 68.0 °F 59.0 °F 73% 29.85 in 10.0 mi South 6.9 mph - N/A   Clear
11:53 PM 66.9 °F 60.1 °F 79% 29.84 in 10.0 mi South 10.4 mph - N/A   Clear